Home > Time Zones > World Clock > Weather > Qatar > Doha > Past weeks

Flag for Qatar Weather past 2 weeks in Doha, Qatar

Now
100 °F

Sunny.


Feels Like: 112 °F
Forecast: 87 / 104 °F
Wind: 12 mph from Northeast

Location: Doha International Airport

Current Time: Jul 25, 2014 at 4:07:43 PM

Latest Report: Jul 25, 2014 at 3:00 PM


Visibility: 10 mi

Pressure: 29.42 "Hg

Humidity: 42%

Dew point: 73 °F

Location of DohaLocation

Historic Weather in Doha — Graph

°F

Doha temperature yesterday

Maximum temperature yesterday: 109 °F (at 11:00 AM)
Minimum temperature yesterday: 93 °F (at 1:00 AM)
Average temperature yesterday: 101 °F

Past Weeks' High & Low Weather Summary

 TemperatureHumidityPressure
High115 °F (Jul 13, 12:30 PM)89% (Jul 19, 1:00 AM)29.59 "Hg (Jul 19, 1:00 AM)
Low90 °F (Jul 19, 1:00 AM)5% (Jul 16, 2:00 PM)29.36 "Hg (Jul 17, 4:30 PM)
Average101 °F31%29.46 "Hg
* Reported Jul 10 3:00 PM — Jul 25 3:00 PM, Doha, Weather by CustomWeather, © 2014

Note: Actual official high and low records may vary slightly from our data, if they occured in-between our weather recording intervals... More about our weather records

Advertising

Doha weather history for previous 24 hours

 ConditionsComfort  
Time TempWeatherWind HumidityBarometerVisibility
3:00 PM
Jul 25
100 °FSunny.12 mph42%29.42 "Hg10 mi
2:30 PM102 °FPassing clouds.13 mph37%29.42 "HgN/A
2:00 PM102 °FPassing clouds.13 mph35%29.42 "HgN/A
1:00 PM106 °FSunny.14 mph30%29.45 "Hg10 mi
12:30 PM106 °FSunny.14 mph28%29.45 "Hg10 mi
12:00 PM106 °FSunny.14 mph28%29.45 "Hg10 mi
11:30 AM106 °FSunny.13 mph26%29.45 "Hg10 mi
11:00 AM106 °FSunny.13 mph26%29.47 "Hg10 mi
10:30 AM106 °FPassing clouds.10 mph26%29.47 "HgN/A
10:00 AM106 °FSunny.9 mph22%29.47 "Hg10 mi
9:00 AM102 °FPassing clouds.7 mph27%29.47 "HgN/A
8:30 AM100 °FPassing clouds.5 mph31%29.47 "HgN/A
8:00 AM100 °FPassing clouds.5 mph29%29.47 "HgN/A
7:00 AM97 °FPassing clouds.3 mph34%29.47 "HgN/A
6:30 AM95 °FPassing clouds.3 mph39%29.47 "HgN/A
5:30 AM91 °FPassing clouds.5 mph46%29.45 "HgN/A
5:00 AM93 °FPassing clouds.6 mph41%29.45 "HgN/A
4:30 AM93 °FPassing clouds.6 mph41%29.45 "HgN/A
4:00 AM91 °FClear.2 mph38%29.45 "Hg10 mi
3:00 AM95 °FClear.2 mph36%29.42 "Hg10 mi
2:00 AM95 °FPassing clouds.3 mph34%29.42 "HgN/A
1:30 AM93 °FClear.2 mph36%29.42 "Hg10 mi
1:00 AM91 °FClear.No wind41%29.45 "Hg10 mi
12:00 AM93 °FClear.3 mph39%29.45 "Hg10 mi
11:30 PM
Jul 24
95 °FPassing clouds.3 mph36%29.45 "HgN/A
11:00 PM93 °FClear.2 mph56%29.45 "Hg10 mi
10:00 PM93 °FClear.2 mph63%29.45 "Hg10 mi
9:30 PM93 °FPassing clouds.3 mph63%29.47 "HgN/A
9:00 PM93 °FClear.6 mph53%29.45 "Hg10 mi
8:00 PM97 °FClear.8 mph37%29.45 "Hg10 mi
7:30 PM97 °FClear.7 mph39%29.45 "Hg10 mi
7:00 PM97 °FClear.10 mph42%29.45 "Hg10 mi
6:00 PM99 °FSunny.13 mph42%29.42 "Hg10 mi
5:30 PM100 °FSunny.16 mph37%29.42 "Hg10 mi
5:00 PM102 °FPassing clouds.14 mph37%29.42 "HgN/A
4:30 PM108 °FSunny.17 mph20%29.39 "Hg10 mi
4:00 PM109 °FPassing clouds.15 mph15%29.42 "HgN/A
Weather by CustomWeather, © 2014

See weather overviewHow to use our weather pages